Regional Weather Roundup
Issued by NWS Charleston, SC

Current Version | Previous Version | Graphics & Text | Print | Product List | Glossary On
Versions: 1 2 3 4 5 6 7 8 9 10 11 12 13 14 15 16 17 18 19 20 21 22 23 24 25 26 27 28 29 30 31 32 33 34 35 36 37 38 39 40 41 42 43 44 45 46 47 48 49 50
000 ASUS42 KCHS 221827 RWRCHS REGIONAL WEATHER ROUNDUP NATIONAL WEATHER SERVICE CHARLESTON SC 100 PM EST SUN JAN 22 2017 NOTE: "FAIR" INDICATES FEW OR NO CLOUDS BELOW 12,000 FEET WITH NO SIGNIFICANT WEATHER AND/OR OBSTRUCTIONS TO VISIBILITY. NOT ALL STATIONS ARE QUALITY CONTROLLED. USE DATA WITH CAUTION... ESPECIALLY DEWPOINT OBSERVATIONS. SCZ027-030-031-034>040-042>050-221900- ...SOUTHEAST SOUTH CAROLINA... CITY SKY/WX TMP DP RH WIND PRES REMARKS N CHARLESTON CLOUDY 63 60 90 SW14 29.54F 6HR MIN TEMP: 61; 6HR MAX TEMP: 63; 6HR PCP: 0.85; WATERFRONT PRK N/A 61 61 100 SW7 29.60R MOUNT PLEASANT CLOUDY 61 61 100 SE10G16 29.51F FOG JOHNS ISLAND FAIR 63 61 94 W13G23 29.53F PINOPOLIS N/A 61 61 100 VRB2 29.47F MONCKS CORNER MOCLDY 61 59 94 S6 29.54S SUMMERVILLE CLOUDY N/A N/A N/A S5 29.55F BEAUFORT MCAS TSTM 62 60 93 S13G20 29.52F FOG 6HR MIN TEMP: 61; 6HR MAX TEMP: 63; 6HR PCP: 0.81; BEAUFORT ARPT LGT RAIN 61 61 100 SW10 29.55F HILTON HEAD IS NOT AVBL WALTERBORO CLOUDY 61 59 94 S7 29.52F ALLENDALE CLOUDY 64 61 88 S6 29.50F ...SOUTHERN MIDLANDS AND PEE DEE... CITY SKY/WX TMP DP RH WIND PRES REMARKS GEORGETOWN CLOUDY 59 59 100 SE20 29.52F KINGSTREE FAIR 63 59 88 SE9 29.51F ORANGEBURG CLOUDY 64 60 87 S8 29.51F 6HR MIN TEMP: 59; 6HR MAX TEMP: 63; 6HR PCP: 0.22; BARNWELL CLOUDY 64 63 94 SE5 29.49F AIKEN CLOUDY 63 59 88 S12 29.53F MANNING MOCLDY 61 57 88 SE5 29.52F COLUMBIA CLOUDY 66 59 78 SE13 29.49F 6HR MIN TEMP: 60; 6HR MAX TEMP: 67; 6HR PCP: 0.17; SUMTER CLOUDY 65 58 79 SE9 29.48F 6HR MIN TEMP: 59; 6HR MAX TEMP: 65; 6HR PCP: 0.31; FLORENCE CLOUDY 64 59 83 S9 29.53F 6HR MIN TEMP: 59; 6HR MAX TEMP: 64; 6HR PCP: 0.11; MYRTLE BEACH PTSUNNY 61 55 82 S7 29.59F N MYRTLE BEACH CLOUDY 60 58 92 SW5 29.57R FOG 6HR MIN TEMP: 58; 6HR MAX TEMP: 60; 6HR PCP: 0.44; $$ GAZ063-065-086>088-099>101-113>116-118-119-134>141-150-221900- ...SOUTHEAST GEORGIA... CITY SKY/WX TMP DP RH WIND PRES REMARKS SAVANNAH ARPT HVY RAIN 62 59 90 SE10 29.52F FOG 6HR MIN TEMP: 59; 6HR MAX TEMP: 62; 6HR PCP: 1.42; HUNTER AAF CLOUDY 63 63 100 S3 29.53S FOG 6HR MIN TEMP: 60; 6HR MAX TEMP: 62; 6HR PCP: 2.09; FORT STEWART TSTM 61 59 94 CALM 29.51F FOG 6HR MIN TEMP: 61; 6HR MAX TEMP: 62; 6HR PCP: 1.32; STATESBORO CLOUDY 63 32 31 SW8 29.56R SYLVANIA RAIN N/A N/A N/A S3 29.53S CLAXTON TSTM N/A N/A N/A CALM 29.56R ...CSRA...CENTRAL AND FAR SOUTHEAST GEORGIA... CITY SKY/WX TMP DP RH WIND PRES REMARKS THOMSON CLOUDY 64 63 94 S7 29.53F AUGUSTA-BUSH CLOUDY 66 60 81 S12 29.51F 6HR MIN TEMP: 61; 6HR MAX TEMP: 66; 6HR PCP: TRACE; AUGUSTA-DANIEL CLOUDY 64 58 80 S7 29.50F SWAINSBORO CLOUDY 63 63 100 SE6 29.52R VIDALIA RAIN 63 63 100 E10 29.45F EASTMAN MOCLDY 66 66 100 SE8 29.42F HAZLEHURST LGT RAIN 64 64 100 SE5 29.45F ALMA LGT RAIN 63 63 100 CALM 29.48F FOG 6HR MIN TEMP: 61; 6HR MAX TEMP: 64; 6HR PCP: 0.69; WAYCROSS TSTM 65 65 100 S6 29.50F JESUP HVY RAIN 63 61 94 CALM 29.52F BAXLEY LGT RAIN 63 63 100 CALM 29.47 BRUNSWICK CLOUDY 63 63 100 SE8 29.54F SAINT SIMONS RAIN 62 61 96 SE8 29.57F FOG 6HR MIN TEMP: 62; 6HR MAX TEMP: 68; 6HR PCP: 1.17; $$ SCZ027-028-034-036>038-045-046-048>050-GAZ119-141-221900- ...LAKE AND SUPPLEMENTAL COASTAL OBSERVATIONS... STATION/POSITION TIME TEMP WIND PRES WAVE SWELL AIR SEA DIR/SP/G HT/PER HT/PER/DIR (UTC) (F) (DEG/KT/KT) (MB) (FT/S) (FT/S/D) WINYAH BAY 1745 59 210/ 3 1002.0S LAKE MURRAY 1720 63 140/ 7/ 10 999.0F ACE BASIN NERRS 1745 61 180/ 4 1000.0F FORT PULASKI 1800 63 59 220/ 8/ 11 1001.2 SAPELO ISLAND 1800 62 140/ 8 1001.0 $$ ANZ835-935-AMZ111-154-330-350-352-354-370-450-454-472-221900- ...C-MAN AND BUOY OBSERVATIONS... STATION/POSITION TIME TEMP WIND PRES WAVE SWELL AIR SEA DIR/SP/G HT/PER HT/PER/DIR (UTC) (F) (DEG/KT/KT) (MB) (FT/S) (FT/S/D) BUOY 41004 1750 66 67 210/ 12/ 14 1001.9F 6/ 7 5/180/ 7 BUOY 41008 1750 61 60 150/ 12/ 14 1001.6F 5/ 6 3/150/ 6 FOLLY BEACH CMAN 1800 60 180/ 21/ 24 1000.3F CAPERS NEARSHORE 1708 58 57 130/ 10/ 14 1002.3F FRIPP NEARSHORE 1808 60 58 160/ 12/ 16 1000.7F STATION/POSITION TIME TEMP WIND PRES WAVE SWELL AIR SEA DIR/SP/G HT/PER HT/PER/DIR (UTC) (F) (DEG/KT/KT) (MB) (FT/S) (FT/S/D) 5E ST. MARYS GA 1800 63 N/A 4/ 6 FRYING PAN BUOY 1810 63 68 80/ 4/ 6 1000.5 BUOY 41025 1750 64 72 220/ 10/ 14 1002.5F 4/11 3/ 90/11 CAPE LOOKOUT NC 1800 60 190/ 12/ 13 1001.6F BUOY 41002 1750 73 71 190/ 21/ 25 1004.3F 8/ 7 3/ 30/13 BUOY 41010 NOT AVBL ST AUGUSTINE FL 1800 80 66 220/ 17/ 25 1001.5F $$

USA.gov is the U.S. government's official web portal to all federal, state and local government web resources and services.